Waarnemingen

Advertentie
Mijn weer
St-Hubert, België (6476): temperatuur & dauwpunt: 19.04.2018 14:00:00 - 25.04.2018 14:00:00 (CEST)St-Hubert, België (6476): windsnelheid & windstoten: 19.04.2018 14:00:00 - 25.04.2018 14:00:00 (CEST)St-Hubert, België (6476): windrichting: 19.04.2018 14:00:00 - 25.04.2018 14:00:00 (CEST)St-Hubert, België (6476): luchtdruk: 19.04.2018 14:00:00 - 25.04.2018 14:00:00 (CEST)St-Hubert, België (6476): zicht: 19.04.2018 14:00:00 - 25.04.2018 14:00:00 (CEST)
Datum & Tijd tt [°C] td [°C] ff [km/u] ff [kn] fx [km/u] fx [kn] dd ppp [hPa] vv [km]
25.04.2018 14:00:00 12,5 6,4 18 10 - - W 1013,3 40
25.04.2018 13:00:00 10,5 7,0 18 10 43 23 W 1013,8 40
25.04.2018 12:00:00 10,0 8,0 18 10 36 19 W 1013,7 35
25.04.2018 11:00:00 8,6 7,3 22 12 - - W 1013,8 9
25.04.2018 10:00:00 8,9 8,2 14 8 32 18 WZW 1013,0 2,2
25.04.2018 09:00:00 9,1 7,7 14 8 25 14 WZW 1012,4 14
25.04.2018 08:00:00 9,1 7,7 11 6 - - WZW 1012,3 12
25.04.2018 07:00:00 8,7 7,3 11 6 22 12 WZW 1012,0 10
25.04.2018 06:00:00 8,6 7,1 11 6 22 12 WZW 1012,0 13
25.04.2018 05:00:00 8,9 6,9 14 8 - - WZW 1011,9 19
25.04.2018 04:00:00 8,3 6,2 11 6 22 12 WZW 1012,1 21
25.04.2018 03:00:00 8,8 6,1 11 6 29 16 ZW 1012,4 27
25.04.2018 02:00:00 10,1 6,3 14 8 - - ZW 1012,7 30
25.04.2018 01:00:00 9,7 6,4 11 6 22 12 ZW 1013,4 40
25.04.2018 00:00:00 9,9 6,1 11 6 29 16 ZW 1014,0 40
24.04.2018 23:00:00 10,7 6,2 14 8 - - ZZW 1014,3 45
24.04.2018 22:00:00 11,3 6,1 14 8 25 14 ZZW 1014,6 45
24.04.2018 21:00:00 11,8 7,6 11 6 22 12 ZZW 1014,7 45
24.04.2018 20:00:00 13,2 8,0 11 6 - - ZW 1014,9 35
24.04.2018 19:00:00 13,7 7,9 14 8 29 16 ZW 1015,3 40
24.04.2018 18:00:00 14,2 7,9 14 8 32 18 ZW 1015,5 27
24.04.2018 17:00:00 14,5 7,5 18 10 - - WZW 1015,9 35
24.04.2018 16:00:00 14,9 7,3 - - 32 18 - 1016,5 29
24.04.2018 15:00:00 15,1 7,5 18 10 32 18 WZW 1017,0 30
24.04.2018 14:00:00 13,8 6,1 14 8 - - ZW 1017,8 27
24.04.2018 13:00:00 13,0 5,6 14 8 25 14 ZW 1018,4 35
24.04.2018 12:00:00 11,4 4,9 14 8 25 14 W 1019,3 35
24.04.2018 11:00:00 9,6 5,9 - - - - - 1019,4 -
24.04.2018 10:00:00 7,3 5,3 - - - - - 1019,8 -
24.04.2018 09:00:00 6,1 4,7 - - - - - 1020,0 -
24.04.2018 08:00:00 4,9 4,0 - - - - - 1019,9 -
24.04.2018 07:00:00 4,4 3,5 - - - - - 1019,8 -
24.04.2018 06:00:00 4,4 3,4 - - - - - 1019,6 -
24.04.2018 05:00:00 4,4 3,2 - - - - - 1019,9 -
24.04.2018 04:00:00 4,4 3,5 - - - - - 1020,1 -
24.04.2018 03:00:00 4,9 3,7 - - - - - 1020,3 -
24.04.2018 02:00:00 6,4 4,8 - - - - - 1020,2 -
24.04.2018 01:00:00 6,5 5,1 - - - - - 1020,2 -
24.04.2018 00:00:00 7,9 5,6 - - - - - 1019,8 -
23.04.2018 23:00:00 7,0 4,5 - - - - - 1020,0 -
23.04.2018 22:00:00 8,5 5,4 - - - - - 1019,3 -
23.04.2018 21:00:00 10,5 5,3 - - - - - 1018,3 -
23.04.2018 20:00:00 12,3 5,3 - - - - - 1017,7 -
23.04.2018 19:00:00 13,4 5,3 - - - - - 1017,5 -
23.04.2018 18:00:00 15,1 7,3 - - - - - 1016,7 -
23.04.2018 17:00:00 15,3 7,1 - - - - - 1016,4 -
23.04.2018 16:00:00 15,4 7,5 - - - - - 1016,5 -
23.04.2018 15:00:00 13,8 7,9 11 6 29 16 W 1017,2 30
23.04.2018 14:00:00 14,0 8,3 14 8 - - W 1017,1 35
23.04.2018 13:00:00 13,1 9,6 11 6 22 12 W 1017,4 30
23.04.2018 12:00:00 11,8 8,0 14 8 25 14 NW 1017,5 22
23.04.2018 11:00:00 13,2 8,0 11 6 - - WZW 1016,5 35
23.04.2018 10:00:00 12,8 7,9 11 6 18 10 W 1016,2 35
23.04.2018 09:00:00 11,3 7,1 7 4 14 8 WZW 1016,4 40
23.04.2018 08:00:00 11,2 7,6 7 4 - - W 1015,8 29
23.04.2018 07:00:00 11,2 7,4 7 4 14 8 W 1015,5 29
23.04.2018 06:00:00 11,2 7,8 7 4 36 19 W 1015,4 30
23.04.2018 05:00:00 11,9 8,3 11 6 - - W 1015,2 28
23.04.2018 04:00:00 12,5 10,1 4 2 14 8 ZW 1015,0 14
23.04.2018 03:00:00 13,1 10,8 7 4 14 8 WZW 1014,5 23
23.04.2018 02:00:00 12,9 10,6 4 2 - - ZZW 1014,1 26
23.04.2018 01:00:00 14,8 10,4 14 8 29 16 WNW 1014,2 28
23.04.2018 00:00:00 16,3 10,7 11 6 18 10 ZW 1013,1 29
22.04.2018 23:00:00 16,1 10,4 7 4 - - WZW 1013,2 30
22.04.2018 22:00:00 16,7 11,4 11 6 22 12 ZZW 1012,8 30
22.04.2018 21:00:00 17,4 11,0 11 6 25 14 ZW 1012,3 28
22.04.2018 20:00:00 19,0 10,2 14 8 - - ZW 1011,6 30
22.04.2018 19:00:00 20,0 10,4 22 12 36 19 ZW 1011,1 29
22.04.2018 18:00:00 20,2 10,9 18 10 40 21 WZW 1011,1 30
22.04.2018 17:00:00 20,9 10,1 25 14 - - ZW 1010,9 27
22.04.2018 16:00:00 21,5 10,0 18 10 130 70 ZW 1011,0 26
22.04.2018 15:00:00 21,8 11,3 18 10 32 18 ZZW 1011,3 23
22.04.2018 14:00:00 22,3 11,1 18 10 - - ZZW 1011,3 27
22.04.2018 13:00:00 21,7 12,6 14 8 122 66 Z 1011,9 30
22.04.2018 12:00:00 19,7 10,3 7 4 29 16 ZW 1012,6 30
22.04.2018 11:00:00 20,5 11,0 11 6 - - Z 1012,8 24
22.04.2018 10:00:00 18,4 10,3 11 6 22 12 ZZO 1013,5 25
22.04.2018 09:00:00 17,5 10,4 11 6 18 10 Z 1013,8 26
22.04.2018 08:00:00 15,7 10,4 7 4 - - ZZO 1014,3 18
22.04.2018 07:00:00 13,7 9,2 7 4 14 8 ZZO 1015,0 17
22.04.2018 06:00:00 13,1 8,5 7 4 18 10 ZZO 1015,3 17
22.04.2018 05:00:00 13,5 8,6 11 6 - - ZO 1015,8 14
22.04.2018 04:00:00 14,9 8,4 14 8 25 14 ZO 1015,7 15
22.04.2018 03:00:00 15,3 8,0 18 10 29 16 OZO 1015,7 13
22.04.2018 02:00:00 15,5 8,1 18 10 - - OZO 1016,3 12
22.04.2018 01:00:00 15,0 8,1 18 10 25 14 O 1017,1 11
22.04.2018 00:00:00 14,9 9,2 14 8 25 14 O 1017,7 11
21.04.2018 23:00:00 14,9 10,1 14 8 - - ONO 1018,1 12
21.04.2018 22:00:00 14,7 10,2 14 8 22 12 ONO 1018,1 11
21.04.2018 21:00:00 17,0 9,8 11 6 22 12 NNO 1017,7 12
21.04.2018 20:00:00 19,0 10,5 18 10 - - NNO 1017,2 10
21.04.2018 19:00:00 20,7 11,0 14 8 25 14 NNO 1017,0 10
21.04.2018 18:00:00 21,7 10,3 14 8 22 12 N 1017,2 22
21.04.2018 17:00:00 22,5 10,8 11 6 - - N 1017,5 21
21.04.2018 16:00:00 22,3 10,2 11 6 112 60 NO 1018,1 25
21.04.2018 15:00:00 21,1 9,6 4 2 126 68 - 1019,0 23
21.04.2018 14:00:00 20,5 8,4 4 2 - - - 1019,7 19
21.04.2018 13:00:00 20,5 8,5 7 4 14 8 - 1020,3 26
21.04.2018 12:00:00 20,1 7,6 11 6 14 8 O 1020,8 30
21.04.2018 11:00:00 19,3 8,0 7 4 - - NO 1021,2 19
21.04.2018 10:00:00 18,2 9,6 7 4 14 8 NNO 1021,2 19
21.04.2018 09:00:00 16,0 9,4 11 6 14 8 NO 1021,6 15
21.04.2018 08:00:00 14,2 10,4 7 4 - - NNO 1021,9 15
21.04.2018 07:00:00 12,9 8,0 11 6 14 8 NO 1021,8 17
21.04.2018 06:00:00 13,3 7,3 11 6 14 8 NO 1021,5 17
21.04.2018 05:00:00 14,6 7,2 11 6 - - NO 1021,6 21
21.04.2018 04:00:00 14,4 7,1 11 6 14 8 NO 1022,0 22
21.04.2018 03:00:00 14,7 8,1 11 6 18 10 NO 1022,2 22
21.04.2018 02:00:00 15,0 8,7 14 8 - - NO 1022,4 18
21.04.2018 01:00:00 15,5 9,8 14 8 18 10 NO 1022,6 21
21.04.2018 00:00:00 16,8 9,9 14 8 18 10 NNO 1022,4 24
20.04.2018 23:00:00 18,4 9,2 11 6 - - NNO 1021,9 35
20.04.2018 22:00:00 19,3 8,9 11 6 122 66 N 1021,8 40
20.04.2018 21:00:00 20,7 8,8 11 6 18 10 NNW 1021,2 35
20.04.2018 20:00:00 22,1 9,0 11 6 - - NNW 1020,6 35
20.04.2018 19:00:00 23,4 8,4 11 6 18 10 NW 1020,5 27
20.04.2018 18:00:00 22,9 11,2 7 4 22 12 W 1020,8 29
20.04.2018 17:00:00 24,0 8,0 4 2 - - - 1021,0 30
20.04.2018 16:00:00 23,9 9,3 11 6 - - W 1021,5 35
20.04.2018 15:00:00 23,5 7,1 - - 25 14 - 1022,1 30
20.04.2018 14:00:00 23,1 7,0 11 6 - - NNW 1022,7 27
20.04.2018 13:00:00 22,8 7,4 - - - - - 1023,1 30
20.04.2018 12:00:00 22,5 6,8 - - - - - 1023,2 29
20.04.2018 11:00:00 21,7 8,1 - - - - - 1023,3 29
20.04.2018 10:00:00 20,8 9,1 7 4 11 6 NNW 1023,3 30
20.04.2018 09:00:00 20,1 12,5 0 0 4 2 N 1023,3 30
20.04.2018 08:00:00 17,6 6,1 4 2 - - WNW 1024,0 40
20.04.2018 07:00:00 14,9 4,9 0 0 4 2 N 1024,5 45
20.04.2018 06:00:00 14,5 5,1 4 2 7 4 Z 1024,5 45
20.04.2018 05:00:00 14,4 6,7 7 4 - - ZO 1024,9 45
20.04.2018 04:00:00 15,8 7,7 7 4 11 6 OZO 1024,8 45
20.04.2018 03:00:00 15,7 6,8 7 4 11 6 OZO 1025,1 45
20.04.2018 02:00:00 14,3 6,4 0 0 - - N 1025,8 45
20.04.2018 01:00:00 15,8 7,8 4 2 7 4 Z 1025,4 45
20.04.2018 00:00:00 15,6 7,1 4 2 7 4 ZZO 1025,6 45
19.04.2018 23:00:00 16,4 7,4 4 2 - - Z 1025,6 45
19.04.2018 22:00:00 16,0 7,2 4 2 11 6 Z 1025,8 45
19.04.2018 21:00:00 16,4 8,1 - - - - - 1025,4 45
19.04.2018 20:00:00 20,5 8,4 - - - - - 1024,3 40
19.04.2018 19:00:00 22,4 5,0 - - - - - 1024,0 30
19.04.2018 18:00:00 22,8 4,7 - - - - - 1024,1 30
19.04.2018 17:00:00 23,1 7,8 - - - - - 1024,1 40
19.04.2018 16:00:00 22,8 6,7 - - - - - 1024,6 40
19.04.2018 15:00:00 22,1 7,6 - - - - - 1025,0 27
19.04.2018 14:00:00 21,6 6,1 14 8 - - ZO 1025,3 30

tt = temperatuur
td = dauwpunt
ff = windsnelheid
fx = windstoten
dd = windrichting
ppp = luchtdruk
vv = zicht

Weerstations in de omgeving